カタログに戻る

FENGYUN 1C DEB

運用中PO
NORAD 33625·DEBRIS·🇨🇳 China

打ち上げ May 10, 1999 から Taiyuan Satellite Launch Center

Loading…

次のパス (今後24時間)

TLE

経年Source: Space-Track

元期: Sep 5, 2026, 19:18 UTC

1 33625U 99025DDJ 26248.80457551  .00001643  00000-0  23084-3 0  9995
2 33625  98.6423  16.7719 0215506  28.1796 333.0871 14.64272761652958

AllMySatでFENGYUN 1C DEBをリアルタイム追跡

Download on the App Store